Location: Anumalkud?ru
(16.4847°N, 80.6636°E)
Time: 11:18:58
(UTC+00:00)

USA 290 - Pass Details

Date: 11 April 2026
Orbit: 396 x 415 km, 73.6° (Epoch: 30 October)

Event Time Altitude Azimuth Distance (km) Brightness Sun altitude
Exits shadow 23:31:37 17° 301° (WNW) 1,105 4.0 -13.3°
Drops below altitude 10° 23:33:13 10° 331° (NNW) 1,433 4.8 -12.9°
Sets 23:35:43 0° 352° (N) 2,290 6.1 -12.3°
